This is the latest recevied weather packets stored in our database for station/object DG8SF-13. If no packets are shown the sender has not sent any weather packets the latest 10 day(s).
| Time | Temp. | Humidity | Pressure | Rain* | Wind** | Luminosity | Snow |
|---|---|---|---|---|---|---|---|
| 1787552851 | 14.44° C | 71% | 1021 hPa | 0 mm | - | - | - |
| 1787552537 | 13.89° C | 73% | 1020.9 hPa | 0 mm | - | - | - |
| 1787552228 | 13.33° C | 72% | 1020.8 hPa | 0 mm | - | - | - |
| 1787551915 | 13.33° C | 72% | 1020.9 hPa | 0 mm | - | - | - |
| 1787551604 | 12.78° C | 74% | 1020.9 hPa | 0 mm | - | - | - |
| 1787551290 | 13.33° C | 74% | 1020.8 hPa | 0 mm | - | - | - |
| 1787550979 | 13.33° C | 72% | 1020.7 hPa | 0 mm | - | - | - |
| 1787550666 | 12.78° C | 75% | 1020.8 hPa | 0 mm | - | - | - |
| 1787550354 | 12.22° C | 74% | 1020.9 hPa | 0 mm | - | - | - |
| 1787550042 | 12.22° C | 77% | 1021 hPa | 0 mm | - | - | - |
| 1787549718 | 11.67° C | 79% | 1021.1 hPa | 0 mm | - | - | - |
| 1787549393 | 11.67° C | 80% | 1021 hPa | 0 mm | - | - | - |
| 1787549082 | 11.11° C | 82% | 1021.1 hPa | 0 mm | - | - | - |
| 1787548769 | 11.11° C | 84% | 1021.2 hPa | 0 mm | - | - | - |
| 1787548422 | 10° C | 88% | 1021.1 hPa | 0 mm | - | - | - |
| 1787548111 | 9.44° C | 93% | 1021 hPa | 0 mm | - | - | - |
| 1787547788 | 8.89° C | 94% | 1020.9 hPa | 0 mm | - | - | - |
| 1787547474 | 8.89° C | 95% | 1020.9 hPa | 0 mm | - | - | - |
| 1787547162 | 8.33° C | 95% | 1021 hPa | 0 mm | - | - | - |
| 1787546850 | 8.33° C | 95% | 1020.8 hPa | 0 mm | - | - | - |
| 1787546525 | 8.33° C | 95% | 1020.8 hPa | 0 mm | - | - | - |
| 1787546204 | 8.33° C | 95% | 1020.7 hPa | 0 mm | - | - | - |
| 1787545877 | 8.33° C | 95% | 1020.8 hPa | 0 mm | - | - | - |
| 1787545581 | 7.78° C | 95% | 1020.8 hPa | 0 mm | - | - | - |
| 1787545253 | 7.78° C | 95% | 1020.8 hPa | 0 mm | - | - | - |
* Rain latest hour (hover to see other rain measurements)
** Current wind speed in m/s (hover to see current wind gust speed)